KF0AIT Weather Reports


Display with metric or nautical units.
time (UTC)temp
F
wind
direction
speed
MPH
gust
MPH
rain 1hr
in
rain 24hr
in
rain mn
in
humidity
%
barometer
mb
20260831053603 74 0 0.0 0.0 0.00 0.00 0.00 64 1002.9
20260831052703 74 0 0.0 0.0 0.00 0.00 0.00 64 1002.9
20260831051803 74 0 0.0 0.0 0.00 0.00 0.00 64 1002.9
20260831050903 75 0 0.0 0.0 0.00 0.00 0.00 64 1002.9
20260831050003 82 0 0.0 0.0 0.00 0.00 0.00 56 1002.9
20260831045403 82 0 0.0 0.0 0.00 0.00 0.00 56 1002.9
20260831044503 82 0 0.0 0.0 0.00 0.00 0.00 56 1002.9
20260831043624 82 0 0.0 0.0 0.00 0.00 0.00 56 1002.9
20260831042724 82 0 0.0 0.0 0.00 0.00 0.00 56 1002.9
20260831041803 82 0 0.0 0.0 0.00 0.00 0.00 56 1002.9
20260831040903 82 0 0.0 0.0 0.00 0.00 0.00 56 1002.9
20260831040003 82 0 0.0 0.0 0.00 0.00 0.00 56 1002.9
20260831035424 82 0 0.0 0.0 0.00 0.00 0.00 56 1002.9
20260831034503 82 0 0.0 0.0 0.00 0.00 0.00 56 1002.9
20260831033603 82 0 0.0 0.0 0.00 0.00 0.00 56 1002.9
20260831032703 82 0 0.0 0.0 0.00 0.00 0.00 56 1002.9
20260831031803 82 0 0.0 0.0 0.00 0.00 0.00 56 1002.9
20260831030903 82 0 0.0 0.0 0.00 0.00 0.00 56 1002.9
20260831030003 82 0 0.0 0.0 0.00 0.00 0.00 56 1002.9
20260831025403 82 0 0.0 0.0 0.00 0.00 0.00 56 1002.9
20260831024503 82 0 0.0 0.0 0.00 0.00 0.00 56 1002.9
20260831023603 82 0 0.0 0.0 0.00 0.00 0.00 56 1001.8
20260831022703 82 0 0.0 0.0 0.00 0.00 0.00 56 1001.8
20260831021824 82 0 0.0 0.0 0.00 0.00 0.00 56 1001.8
20260831020903 82 0 0.0 0.0 0.00 0.00 0.00 56 1001.8
20260831020004 82 0 0.0 0.0 0.00 0.00 0.00 56 1001.8
20260831015403 82 0 0.0 0.0 0.00 0.00 0.00 56 1000.8
20260831014503 82 0 0.0 0.0 0.00 0.00 0.00 56 1000.8
20260831013603 82 0 0.0 0.0 0.00 0.00 0.00 56 1000.8
20260831012703 82 0 0.0 0.0 0.00 0.00 0.00 55 1000.8
20260831011824 83 0 0.0 0.0 0.00 0.00 0.00 53 1000.8
20260831010903 83 0 0.0 0.0 0.00 0.00 0.00 52 1000.8
20260831010003 84 0 0.0 0.0 0.00 0.00 0.00 52 1000.8
20260831005424 84 0 0.0 0.0 0.00 0.00 0.00 51 1000.8
20260831004503 85 0 0.0 0.0 0.00 0.00 0.00 52 1000.8
20260831003603 85 235 0.0 2.0 0.00 0.00 0.00 53 1000.8
20260831002703 86 247 0.0 1.0 0.00 0.00 0.00 53 1001.8
20260831001803 86 247 1.0 1.0 0.00 0.00 0.00 53 1001.8
20260831000903 86 0 0.0 0.0 0.00 0.00 0.00 54 1000.8
20260831000003 87 0 0.0 0.0 0.00 0.00 0.00 55 1000.8
20260830235403 87 0 0.0 0.0 0.00 0.00 0.00 54 1000.8
20260830234503 87 0 0.0 0.0 0.00 0.00 0.00 54 1000.8
20260830233603 87 0 0.0 0.0 0.00 0.00 0.00 54 1000.8
20260830232724 88 0 0.0 0.0 0.00 0.00 0.00 50 1000.8
20260830231803 88 0 0.0 0.0 0.00 0.00 0.00 52 1000.8
20260830230924 88 0 0.0 0.0 0.00 0.00 0.00 50 1000.8
20260830230003 88 0 0.0 0.0 0.00 0.00 0.00 50 1000.8
20260830225403 89 0 0.0 0.0 0.00 0.00 0.00 50 1000.8
20260830224503 89 0 0.0 0.0 0.00 0.00 0.00 50 1000.8
20260830223603 89 0 0.0 0.0 0.00 0.00 0.00 49 1000.8
20260830222724 89 0 0.0 0.0 0.00 0.00 0.00 50 1000.8
20260830221824 89 247 0.0 1.0 0.00 0.00 0.00 50 1000.8
20260830220903 89 0 0.0 0.0 0.00 0.00 0.00 48 1000.8
20260830220024 90 315 0.0 3.0 0.00 0.00 0.00 48 1000.8
20260830215403 89 0 0.0 0.0 0.00 0.00 0.00 49 1000.8
20260830214503 89 157 0.0 2.0 0.00 0.00 0.00 50 1000.8
20260830213603 89 209 2.0 2.0 0.00 0.00 0.00 51 1000.8
20260830212703 89 0 0.0 0.0 0.00 0.00 0.00 52 1000.8
20260830211803 89 0 0.0 0.0 0.00 0.00 0.00 52 1000.8
20260830210924 89 157 0.0 2.0 0.00 0.00 0.00 52 1000.8
20260830210003 89 157 0.0 2.0 0.00 0.00 0.00 53 1000.8
20260830205403 89 157 1.0 1.0 0.00 0.00 0.00 52 1000.8
20260830204503 89 292 0.0 5.0 0.00 0.00 0.00 53 1000.8
20260830203603 89 285 0.0 1.0 0.00 0.00 0.00 53 1001.8
20260830202703 89 157 0.0 1.0 0.00 0.00 0.00 56 1000.8
20260830201803 89 157 0.0 1.0 0.00 0.00 0.00 58 1000.8
20260830200903 89 215 0.0 2.0 0.00 0.00 0.00 59 1001.8
20260830200003 88 230 0.0 6.0 0.00 0.00 0.00 59 1001.8
20260830195403 88 255 5.0 6.0 0.00 0.00 0.00 60 1001.8
20260830194503 88 157 1.0 2.0 0.00 0.00 0.00 61 1001.8
20260830193603 88 172 0.0 2.0 0.00 0.00 0.00 62 1001.8
20260830192703 87 180 2.0 2.0 0.00 0.00 0.00 63 1001.8
20260830191803 87 247 0.0 2.0 0.00 0.00 0.00 64 1001.8
20260830190924 87 234 0.0 3.0 0.00 0.00 0.00 65 1001.8
20260830190003 86 292 0.0 5.0 0.00 0.00 0.00 66 1001.8
20260830185403 86 292 0.0 5.0 0.00 0.00 0.00 65 1001.8
20260830184503 85 180 0.0 1.0 0.00 0.00 0.00 74 1001.8
20260830183603 85 283 1.0 2.0 0.00 0.00 0.00 74 1001.8
20260830182703 85 0 0.0 0.0 0.00 0.00 0.00 77 1001.8
20260830181803 85 0 0.0 0.0 0.00 0.00 0.00 77 1001.8
20260830180903 84 0 0.0 0.0 0.00 0.00 0.00 77 1002.9
20260830180003 83 247 0.0 2.0 0.00 0.00 0.00 77 1002.9
20260830175403 83 247 0.0 2.0 0.00 0.00 0.00 78 1002.9
20260830174503 83 180 0.0 2.0 0.00 0.00 0.00 79 1002.9
20260830173603 82 180 0.0 1.0 0.00 0.00 0.00 79 1002.9
20260830172703 82 180 0.0 2.0 0.00 0.00 0.00 80 1002.9
20260830171803 82 180 0.0 2.0 0.00 0.00 0.00 80 1002.9
20260830170903 81 0 0.0 0.0 0.00 0.00 0.00 82 1002.9
20260830170024 80 180 0.0 1.0 0.00 0.00 0.00 83 1002.9
20260830165424 80 180 1.0 1.0 0.00 0.00 0.00 84 1002.9
20260830164503 80 0 0.0 0.0 0.00 0.00 0.00 85 1002.9
20260830163603 79 180 0.0 3.0 0.00 0.00 0.00 85 1002.9
20260830162724 79 180 0.0 1.0 0.00 0.00 0.00 86 1002.9
20260830161803 78 180 0.0 2.0 0.00 0.00 0.00 87 1002.9
20260830160903 77 0 0.0 0.0 0.00 0.00 0.00 88 1002.9
20260830160003 77 0 0.0 0.0 0.00 0.00 0.00 88 1002.9
20260830155403 77 180 0.0 1.0 0.00 0.00 0.00 88 1002.9
20260830154503 76 180 1.0 2.0 0.00 0.00 0.00 89 1002.9
20260830153603 76 0 0.0 0.0 0.00 0.00 0.00 89 1002.9
20260830152703 75 0 0.0 0.0 0.00 0.00 0.00 89 1002.9
20260830151803 75 180 0.0 1.0 0.00 0.00 0.00 90 1002.9
20260830150924 74 0 0.0 0.0 0.00 0.00 0.00 90 1002.9
20260830150003 74 0 0.0 0.0 0.00 0.00 0.00 90 1002.9
20260830145403 74 360 0.0 1.0 0.00 0.00 0.00 90 1002.9
20260830144503 73 360 1.0 1.0 0.00 0.00 0.00 91 1002.9
20260830143624 73 0 0.0 0.0 0.00 0.00 0.00 92 1002.9
20260830142703 73 0 0.0 0.0 0.00 0.00 0.00 92 1002.9
20260830141824 72 22 0.0 1.0 0.00 0.00 0.00 92 1002.9
20260830140924 72 0 0.0 0.0 0.00 0.00 0.00 92 1002.9
20260830140003 71 0 0.0 0.0 0.00 0.00 0.00 92 1002.9
20260830135403 71 0 0.0 0.0 0.00 0.00 0.00 92 1002.9
20260830134503 71 0 0.0 0.0 0.00 0.00 0.00 92 1002.9
20260830133603 71 0 0.0 0.0 0.00 0.00 0.00 92 1002.9
20260830132703 71 0 0.0 0.0 0.00 0.00 0.00 91 1002.9
20260830131824 70 0 0.0 0.0 0.00 0.00 0.00 91 1002.9
20260830130903 70 0 0.0 0.0 0.00 0.00 0.00 92 1002.9
20260830130003 70 0 0.0 0.0 0.00 0.00 0.00 91 1002.9
20260830125403 70 0 0.0 0.0 0.00 0.00 0.00 92 1002.9
20260830124503 69 0 0.0 0.0 0.00 0.00 0.00 91 1002.9
20260830123603 69 0 0.0 0.0 0.00 0.00 0.00 91 1002.9
20260830122703 69 0 0.0 0.0 0.00 0.00 0.00 91 1001.8
20260830121824 69 0 0.0 0.0 0.00 0.00 0.00 91 1001.8
20260830120903 69 0 0.0 0.0 0.00 0.00 0.00 91 1002.9
20260830120003 69 0 0.0 0.0 0.00 0.00 0.00 91 1002.9
20260830115424 69 0 0.0 0.0 0.00 0.00 0.00 91 1002.9
20260830114503 69 0 0.0 0.0 0.00 0.00 0.00 91 1002.9
20260830113603 69 0 0.0 0.0 0.00 0.00 0.00 91 1002.9
20260830112703 70 0 0.0 0.0 0.00 0.00 0.00 91 1001.8
20260830111803 70 0 0.0 0.0 0.00 0.00 0.00 91 1001.8
20260830110903 70 0 0.0 0.0 0.00 0.00 0.00 91 1002.9
20260830110004 70 0 0.0 0.0 0.00 0.00 0.00 90 1002.9
20260830105403 70 0 0.0 0.0 0.00 0.00 0.00 90 1002.9
20260830104503 70 0 0.0 0.0 0.00 0.00 0.00 90 1002.9
20260830103603 70 0 0.0 0.0 0.00 0.00 0.00 90 1001.8
20260830102703 70 0 0.0 0.0 0.00 0.00 0.00 90 1002.9
20260830101803 70 0 0.0 0.0 0.00 0.00 0.00 90 1002.9
20260830100924 70 0 0.0 0.0 0.00 0.00 0.00 89 1002.9
20260830100003 70 0 0.0 0.0 0.00 0.00 0.00 89 1002.9
20260830095424 70 0 0.0 0.0 0.00 0.00 0.00 88 1002.9
20260830094503 70 0 0.0 0.0 0.00 0.00 0.00 88 1002.9
20260830093603 70 0 0.0 0.0 0.00 0.00 0.00 88 1002.9
20260830092703 70 0 0.0 0.0 0.00 0.00 0.00 88 1002.9
20260830091803 70 0 0.0 0.0 0.00 0.00 0.00 87 1002.9
20260830090924 70 0 0.0 0.0 0.00 0.00 0.00 87 1002.9
20260830090004 70 0 0.0 0.0 0.00 0.00 0.00 87 1002.9
20260830085403 70 0 0.0 0.0 0.00 0.00 0.00 87 1002.9
20260830084524 70 0 0.0 0.0 0.00 0.00 0.00 86 1002.9
20260830083603 70 0 0.0 0.0 0.00 0.00 0.00 86 1002.9
20260830082703 70 0 0.0 0.0 0.00 0.00 0.00 86 1002.9
20260830081803 70 0 0.0 0.0 0.00 0.00 0.00 86 1002.9
20260830080903 70 0 0.0 0.0 0.00 0.00 0.00 86 1002.9
20260830080003 70 0 0.0 0.0 0.00 0.00 0.00 86 1002.9
20260830075403 70 0 0.0 0.0 0.00 0.00 0.00 86 1002.9
20260830074503 70 0 0.0 0.0 0.00 0.00 0.00 85 1002.9
20260830073603 70 0 0.0 0.0 0.00 0.00 0.00 85 1002.9
20260830072703 70 22 0.0 1.0 0.00 0.00 0.00 84 1002.9
20260830071803 71 0 0.0 0.0 0.00 0.00 0.00 84 1002.9
20260830070903 71 0 0.0 0.0 0.00 0.00 0.00 84 1002.9
20260830070024 71 0 0.0 0.0 0.00 0.00 0.00 84 1002.9
20260830065403 71 0 0.0 0.0 0.00 0.00 0.00 84 1002.9
20260830064503 71 0 0.0 0.0 0.00 0.00 0.00 84 1002.9
20260830063603 71 0 0.0 0.0 0.00 0.00 0.00 83 1002.9
20260830062703 71 0 0.0 0.0 0.00 0.00 0.00 83 1002.9
20260830061803 71 0 0.0 0.0 0.00 0.00 0.00 82 1002.9
20260830060903 72 0 0.0 0.0 0.00 0.00 0.00 82 1002.9
20260830060003 72 0 0.0 0.0 0.00 0.00 0.00 81 1002.9
20260830055403 72 0 0.0 0.0 0.00 0.00 0.00 81 1002.9
20260830054503 72 0 0.0 0.0 0.00 0.00 0.00 81 1002.9